Retour au catalogue

STARLINK-37832

ActifCommunicationsSSO
NORAD 100231·PAYLOAD·🇺🇸 United States

Lancé Aug 4, 2026 depuis Vandenberg Space Force Base

Loading…

Prochains Passages (prochaines 24 heures)

TLE

FraisSource: Space-Track

Époque: Sep 14, 2026, 15:13 UTC

1 A0231U 26177U   26257.63460822  .00030609  00000-0  56168-3 0  9999
2 A0231  97.2836 308.5486 0001866 101.6703 258.4757 15.49218143  7593

Suivez STARLINK-37832 en temps réel avec AllMySat

Download on the App Store